Hourly Data Report for October 02, 2017

All times are specified in Local Standard Time (LST). Add 1 hour to adjust for Daylight Saving Time where and when it is observed.

RESOLUTE BAY A
NUNAVUT

74°43'01.000" N
94°58'10.000" W
67.70 m
2403498
71924
YRB

Download Data

Hourly Data (October 2017)
Hourly Data Report for October 2, 2017
Temp Definition
°C
Dew Point Temp Definition
°C
Rel Hum Definition
%
Wind Dir Definition
10's deg

Wind Spd Definition
km/h
Visibility Definition
km
Stn Press Definition
kPa
Hmdx Definition


Wind Chill Definition


Weather Definition


TIME
00:00 Legend Double Dagger -4.7 -5.5 94 20 17 12.9 99.82   -11 Snow
01:00 Legend Double Dagger -4.5 -5.3 94 19 17 8.1 99.77   -10 Snow
02:00 Legend Double Dagger -4.5 -5.3 94 20 17 12.9 99.75   -10 Snow
03:00 Legend Double Dagger -4.6 -5.4 94 20 18 12.9 99.70   -11 Snow
04:00 Legend Double Dagger -4.8 -5.6 94 18 12 12.9 99.66   -10 Snow
05:00 Legend Double Dagger -5.0 -5.8 94 15 11 12.9 99.65   -10 Snow
06:00 Legend Double Dagger -5.0 -5.8 94 14 13 4.8 99.63   -10 Snow
07:00 Legend Double Dagger -5.5 -6.4 93 12 11 12.9 99.61   -10 Snow
08:00 Legend Double Dagger -5.6 -6.5 93 10 7 14.5 99.59   -9 Snow
09:00 Legend Double Dagger -6.1 -7.2 93 9 10 24.1 99.59   -11 Snow
10:00 Legend Double Dagger -6.2 -7.2 92 8 12 12.9 99.57   -11 Snow
11:00 Legend Double Dagger -5.8 -6.8 93 7 10 14.5 99.55   -10 Snow
12:00 Legend Double Dagger -6.2 -7.3 92 6 14 9.7 99.53   -12 Snow
13:00 Legend Double Dagger -6.1 -7.1 92 7 16 12.9 99.53   -12 Snow
14:00 Legend Double Dagger -6.8 -7.9 92 4 17 12.9 99.52   -13 Snow
15:00 Legend Double Dagger -7.2 -8.4 91 4 26 14.5 99.51   -15 Snow
16:00 Legend Double Dagger -7.9 -9.1 91 3 29 12.9 99.52   -17 Snow
17:00 Legend Double Dagger -9.1 -10.5 90 4 39 14.5 99.50   -19 Snow,Blowing Snow
18:00 Legend Double Dagger -9.9 -11.4 89 3 40 14.5 99.48   -21 Snow,Blowing Snow
19:00 Legend Double Dagger -10.2 -11.7 88 3 37 24.1 99.47   -21 Snow,Blowing Snow
20:00 Legend Double Dagger -11.0 -12.6 88 3 37 24.1 99.46   -22 Snow,Blowing Snow
21:00 Legend Double Dagger -11.1 -12.8 88 4 41 24.1 99.43   -22 Snow
22:00 Legend Double Dagger -10.2 -11.8 88 3 40 19.3 99.41   -21 Snow
23:00 Legend Double Dagger -9.0 -10.5 89 3 40 24.1 99.40   -19 Snow

Notes on Data Quality.

Legend

  • E = Estimated
  • M = Missing
  • NA = Not Available
  • ‡ = Partner data that is not subject to review by the National Climate Archives
Date modified: